TURKSAT 4B (40984 NORAD) Tracking and Keplerian Element Data

This shows tracking and keplerian element data for the satellite.

Feedback or suggestion? Click here.




ElementValue
Catalog40984
NameTURKSAT 4B
Epoch Orbit1136
Epoch Day322.70086381
Epoch Year2018
RAAN326.1988
Inclination0.0129
Eccentricity0.000236
Argument of Perigee250.7893
Mean Anonmoly143.0298
Mean Motion1.00270094
Decay Rate1.24E-06
L11 40984U 15060A 18322.70086381 .00000124 00000-0 00000-0 0 9993
L22 40984 0.0129 326.1988 0002360 250.7893 143.0298 1.00270094 11362

Live tracking and technical data element details for TURKSAT 4B (NORAD 40984). TURKSAT 4B can be tracked NOW for your location showing map with azimuth and elevation plus other details from your city location.

Track the satellite on the map from your city or location and see movement details for azimuth, elevation, latitude, longitude, range, height, and movement on the map or in text.







IsCatalogInMostPopularTable: catalog: 40984, numindb: 142
Update: records affected: 1



GetName: 40984 TURKSAT 4B

Hit Count: updated at: Mon, 19 Nov 2018 13:04:30 GMT